Theta_e
344 341 338 333 316 315 308 310 316 313 314 320 322 319 318 321 316 314 339 340 339 342 349 351 352 352 350 350 349 349 349 350 349 349 347 347 341 337 335 335 335 335 335 336 337 338 339 341 343
340 337 335 326 313 307 308 314 313 316 320 324 323 322 320 320 332 333 335 340 342 345 350 351 353 352 350 349 348 348 350 349 348 347 346 341 337 335 335 334 335 335 335 334 334 334 335 336 337
337 337 327 319 312 307 309 314 316 319 322 323 320 324 322 323 334 336 342 342 345 347 350 352 354 352 351 349 349 349 348 347 346 344 342 340 336 335 334 334 335 334 335 336 335 335 335 335 337
337 331 326 315 310 313 313 316 319 319 322 325 324 320 330 338 335 340 343 342 341 343 348 352 353 352 351 351 349 346 344 341 340 339 339 338 336 336 335 334 335 334 335 335 336 336 335 335 337
333 327 315 312 312 315 317 320 321 319 320 322 323 321 326 338 342 344 343 341 344 348 351 351 353 352 351 349 344 342 339 338 337 337 337 337 337 338 337 334 334 335 335 334 335 335 335 336 336
323 326 314 310 311 317 320 323 321 320 322 324 323 324 325 339 340 342 343 346 347 348 351 351 352 351 350 344 342 338 337 336 337 339 340 339 338 336 336 334 334 334 335 335 335 335 336 336 335
320 320 313 312 312 315 319 326 321 322 322 322 328 321 323 329 329 342 344 344 346 347 347 348 348 350 345 343 339 337 336 335 335 334 335 335 335 336 336 335 334 335 333 334 334 334 334 333 334
325 322 313 313 312 313 322 324 325 324 322 331 327 321 323 328 330 339 335 333 333 332 335 343 347 344 341 339 337 336 335 335 334 332 330 331 331 333 333 331 332 333 333 331 331 331 331 331 330
325 317 313 313 313 316 324 321 326 329 326 327 322 326 325 326 330 330 328 327 328 329 331 335 342 342 340 339 336 334 334 333 329 327 328 326 330 330 329 332 332 331 329 329 328 329 328 329 326
322 317 314 319 320 319 323 323 325 324 324 319 318 318 323 324 324 324 323 323 324 325 327 331 339 339 339 339 334 330 329 329 328 328 328 328 330 329 326 327 327 326 326 324 325 325 324 324 326
319 317 318 321 322 323 323 322 326 323 321 323 322 319 321 321 322 321 321 322 322 325 329 329 335 338 339 338 333 329 330 330 330 329 328 328 328 328 327 326 325 325 323 323 322 321 321 324 325
318 318 320 322 324 323 322 325 323 325 325 329 326 323 320 320 320 321 321 322 322 324 325 326 329 334 337 337 334 330 329 330 330 328 328 327 326 326 326 325 325 324 322 322 321 320 322 324 324
319 319 321 323 323 324 325 323 323 324 328 326 322 319 319 320 320 321 322 322 323 322 323 326 328 329 331 331 331 330 330 329 329 328 327 326 325 325 324 325 323 323 321 319 319 319 320 321 322
320 320 320 322 322 325 323 323 324 326 324 319 319 319 319 319 321 321 321 321 323 323 324 326 327 329 329 329 330 330 330 329 330 328 327 326 325 325 322 323 322 321 319 319 319 318 318 319 320
320 318 319 321 322 322 325 320 321 327 323 320 318 320 319 320 321 321 323 323 323 324 326 326 328 328 328 327 327 329 330 328 328 328 328 326 326 325 325 323 322 320 319 319 319 319 319 319 319
317 317 313 318 322 323 323 315 323 327 322 321 319 319 319 320 321 323 325 325 325 324 325 328 325 327 328 327 328 328 329 329 329 329 329 326 325 325 324 322 322 321 319 318 317 317 317 318 319
314 308 311 314 322 322 321 317 322 326 323 322 321 320 320 321 323 325 325 326 325 324 325 327 328 327 327 329 329 329 329 328 330 329 329 327 325 324 324 322 322 322 319 318 318 317 317 317 319
305 307 309 311 317 321 319 318 323 323 322 322 323 323 322 322 324 327 327 327 326 324 324 325 327 328 329 329 330 330 328 328 329 328 328 327 327 325 325 323 323 322 319 318 319 318 318 317 317
309 309 308 313 317 318 318 318 321 325 323 322 322 323 323 324 328 327 327 327 327 325 324 323 323 326 327 327 326 326 325 327 327 327 326 326 326 325 326 324 323 322 319 320 320 318 316 315 317
311 309 310 313 317 317 316 314 317 323 325 326 324 324 325 327 328 327 327 328 328 327 326 323 323 323 326 326 325 326 327 327 327 327 327 327 326 326 325 325 323 322 320 321 321 319 316 315 316
311 310 310 310 314 316 312 312 313 319 325 328 329 329 330 330 330 331 328 329 329 326 325 324 322 323 323 325 326 326 327 327 326 326 325 327 327 326 326 324 324 323 322 319 320 320 318 313 316
309 312 312 311 311 306 311 303 312 317 320 321 326 329 331 332 334 334 334 330 328 326 325 324 324 323 321 322 324 325 323 321 325 325 326 327 327 327 325 325 324 324 322 322 320 320 319 318 314
310 315 314 312 311 309 310 306 311 316 315 318 321 323 325 327 326 327 329 330 328 327 327 329 330 323 321 322 325 325 325 324 325 325 325 329 329 327 325 325 325 324 322 322 322 322 321 320 316
316 313 311 311 309 303 306 307 308 312 314 318 322 323 324 324 327 328 330 330 327 329 329 329 331 329 326 325 326 327 327 326 324 324 323 324 325 325 325 324 325 325 324 323 323 323 322 321 319
314 311 304 301 302 300 307 308 310 317 317 319 320 322 324 325 327 326 326 327 328 328 329 332 334 328 327 326 326 327 327 327 326 325 323 324 324 325 326 327 326 325 325 325 324 324 323 322 320
311 310 304 296 297 300 306 304 309 316 319 321 322 324 324 325 328 327 327 328 329 330 332 334 332 330 329 327 327 327 327 325 325 326 325 324 325 324 327 327 327 327 326 326 325 324 323 324 322
311 310 311 305 303 302 305 308 314 317 319 320 321 323 323 326 327 327 327 329 330 331 332 333 333 331 331 328 328 328 328 327 327 329 328 325 327 325 326 326 326 326 326 326 326 324 324 325 324
313 313 307 307 298 296 302 304 306 312 317 319 320 321 323 326 328 328 329 329 330 332 334 335 333 330 332 330 328 328 328 328 328 329 328 328 328 328 327 327 327 327 327 327 327 326 326 325 324
311 311 308 308 307 300 299 303 314 314 319 318 320 321 322 323 327 329 329 330 331 333 334 333 334 330 329 330 329 328 326 328 328 328 328 328 328 328 327 327 327 326 327 328 327 327 327 325 325
312 311 311 306 303 306 304 306 315 319 319 319 320 321 322 323 324 329 330 330 331 332 332 331 333 333 332 330 330 328 328 329 328 328 329 329 328 329 327 327 326 326 326 328 327 326 326 325 324
Wind_Speed
11 7 1 2 2 4 4 4 1 4 3 2 3 1 4 5 4 6 3 5 8 8 7 7 5 5 4 4 2 2 3 6 6 6 6 7 8 8 9 11 12 12 12 11 10 9 8 8 8
7 3 1 1 3 5 4 2 6 1 6 9 8 5 4 5 3 7 7 6 7 7 6 5 5 5 4 3 2 4 7 7 7 7 6 7 8 8 10 12 13 12 12 11 10 10 9 9 8
6 3 1 4 3 4 4 1 6 11 3 2 3 3 2 4 3 4 6 9 8 6 5 5 6 5 4 3 4 9 9 9 9 8 6 5 7 8 10 11 12 13 13 13 12 11 10 11 12
2 2 3 4 8 4 4 8 8 2 4 4 3 6 6 6 0 4 10 8 6 6 5 6 5 4 4 7 10 10 9 8 7 5 3 4 6 6 7 8 11 12 13 13 14 13 12 12 13
2 1 5 5 5 3 5 4 2 1 1 0 2 4 4 5 7 11 9 7 7 7 6 7 6 6 8 9 11 10 9 8 8 6 2 2 5 7 8 5 7 10 12 13 13 12 14 14 13
2 1 3 4 4 4 4 4 3 2 4 4 5 5 3 3 5 6 8 7 6 7 6 6 7 8 11 11 10 9 10 10 9 10 11 9 7 8 8 6 7 9 11 12 12 13 13 14 13
3 3 4 6 6 5 5 4 3 5 3 3 3 3 3 5 3 7 8 7 7 6 6 5 6 10 12 11 11 10 9 10 10 10 10 9 8 8 11 11 9 9 9 10 10 11 12 13 13
3 3 4 3 7 3 6 4 5 5 3 3 3 3 5 9 6 7 7 7 7 6 5 3 5 7 7 9 10 10 10 9 9 10 10 8 7 8 9 7 9 10 10 10 11 11 11 12 12
1 3 3 5 7 3 8 5 3 1 4 3 0 2 0 14 10 9 7 6 5 5 4 2 5 7 7 6 8 8 10 9 6 6 9 5 5 6 7 10 10 11 11 11 12 12 12 11 7
1 1 4 4 7 5 10 8 10 5 7 3 1 4 10 12 10 9 7 4 3 2 2 3 5 7 7 5 6 6 6 5 5 6 6 5 5 6 6 7 9 9 11 10 11 11 10 7 5
1 4 3 4 7 6 12 7 6 6 7 8 9 12 13 12 10 9 5 4 4 3 2 2 4 5 5 4 4 3 3 3 3 5 5 5 3 4 4 4 4 5 9 7 9 8 5 7 5
1 1 1 3 5 5 8 8 7 13 6 5 11 14 15 14 13 10 7 6 6 6 4 4 5 5 4 3 3 3 2 2 2 4 5 4 3 4 5 4 4 5 6 7 7 6 7 6 6
2 2 3 1 5 3 6 5 4 10 6 5 13 14 15 14 13 9 7 6 6 6 5 5 4 4 4 4 4 3 3 1 3 3 5 4 4 4 5 4 5 5 6 7 7 7 6 6 6
2 2 3 2 6 5 6 4 4 4 8 10 14 17 16 17 15 10 10 8 7 5 6 6 5 4 4 3 3 3 3 3 2 3 4 5 4 4 4 5 5 6 7 6 7 7 7 6 6
1 3 2 4 6 2 5 10 14 6 13 13 16 16 16 18 15 16 13 10 9 6 7 7 6 5 4 4 3 3 3 2 2 2 3 4 4 5 5 4 5 6 6 8 6 7 6 7 5
1 0 4 3 7 3 3 10 2 11 15 15 16 15 17 19 20 16 12 11 9 7 8 7 5 6 6 4 3 3 3 2 2 1 1 3 4 4 4 5 5 6 6 6 6 6 7 7 4
3 6 5 5 7 3 10 13 6 5 13 14 16 17 16 16 16 15 11 10 9 8 7 7 6 5 5 4 3 2 3 3 2 1 1 1 3 3 4 5 5 6 6 7 7 7 7 7 4
3 5 3 7 1 9 9 21 11 4 12 16 19 15 16 16 20 13 11 10 8 5 4 4 3 4 4 3 1 2 2 3 4 3 2 1 1 2 3 4 5 5 5 6 7 8 7 6 6
5 6 5 3 3 6 11 18 19 11 13 16 15 15 17 18 15 7 9 10 10 8 4 4 4 3 3 2 2 2 4 3 4 4 4 4 3 3 3 3 4 4 5 6 7 6 7 7 8
4 3 2 1 2 7 6 14 11 4 7 12 15 17 18 19 15 9 10 12 12 11 7 3 4 2 4 2 0 2 2 2 3 3 4 5 5 5 3 3 4 4 4 5 5 6 6 5 6
1 3 3 2 2 2 11 3 3 1 6 7 11 15 16 17 18 15 16 15 14 11 6 7 7 3 4 3 2 2 2 3 3 4 4 5 6 6 5 4 4 4 4 4 5 4 5 6 4
3 6 2 1 3 4 7 6 1 5 10 5 8 8 10 13 15 17 15 14 16 13 11 13 14 8 6 6 4 5 4 4 3 4 3 4 5 6 6 5 5 4 4 5 4 4 4 4 5
2 3 4 3 3 2 6 5 6 5 6 11 8 8 6 9 12 16 14 11 16 20 17 14 13 6 8 7 7 5 5 3 3 3 4 4 5 5 7 6 6 6 5 5 6 6 5 4 5
8 2 4 2 0 2 3 4 3 5 6 9 8 8 10 11 12 9 6 16 18 17 14 10 10 9 8 8 7 7 6 4 4 4 4 4 3 4 6 7 7 7 7 7 7 7 7 6 6
1 2 2 3 3 5 2 4 6 7 5 7 10 11 12 12 13 7 8 11 14 18 14 12 10 9 10 9 7 8 6 5 6 5 4 5 5 4 5 7 8 7 8 9 8 8 9 8 8
2 1 2 4 5 8 1 4 4 3 7 5 6 6 12 14 13 8 3 8 11 15 15 11 7 8 10 9 9 7 7 5 5 4 4 5 5 4 5 6 7 9 10 10 9 8 9 9 9
5 2 3 5 1 4 2 4 8 3 5 4 6 10 13 13 13 9 3 5 8 10 14 9 7 8 10 9 8 8 7 8 6 6 5 6 5 5 7 8 9 10 10 10 10 9 10 10 10
1 6 2 1 4 7 3 5 6 4 8 8 5 9 10 10 11 9 4 2 5 7 9 6 7 7 7 9 9 8 8 8 8 7 7 8 7 7 8 9 10 11 11 11 10 10 10 11 10
3 3 5 1 2 5 5 6 3 5 7 7 4 7 8 9 8 6 4 2 5 6 8 7 5 4 6 8 9 9 7 7 8 8 8 8 8 8 10 10 11 12 12 11 11 12 13 13 13
1 2 2 3 2 1 4 5 3 4 3 3 4 5 5 5 4 4 3 4 5 7 8 9 8 6 4 5 8 8 8 8 9 8 9 7 9 9 10 10 11 12 12 12 12 13 13 13 14
Wind_Direction
132 139 142 252 156 73 67 66 305 127 150 64 101 83 53 39 11 78 80 114 116 119 141 154 165 153 135 122 131 80 46 58 52 70 70 72 67 60 47 37 29 19 8 1 0 357 359 355 353
141 141 180 73 76 109 99 294 169 123 104 108 90 108 71 75 60 118 137 120 113 122 137 149 151 138 129 123 113 72 62 51 52 59 73 75 58 49 38 35 33 30 31 28 20 12 7 358 348
123 6 337 58 82 88 112 172 133 116 73 20 111 56 76 59 107 108 101 130 121 129 143 145 147 141 139 132 81 75 73 68 67 65 70 70 51 36 25 25 19 14 11 7 9 6 9 7 7
172 151 99 60 77 71 94 129 109 94 86 60 96 102 98 2 61 117 134 131 116 117 136 143 140 143 116 104 94 89 80 69 61 56 62 65 44 23 11 13 9 3 1 2 6 12 11 7 3
114 131 61 74 61 69 129 128 118 148 85 139 147 117 81 61 104 131 138 128 125 128 135 133 148 134 126 111 105 93 75 57 40 14 354 94 31 3 348 357 2 354 3 4 2 359 358 357 355
126 75 80 77 92 119 139 157 197 137 128 111 141 127 95 89 148 134 132 124 125 121 121 120 126 128 124 119 103 85 68 54 53 48 58 63 47 37 32 41 19 19 360 1 354 356 355 354 351
65 59 87 120 135 171 178 167 197 126 109 105 100 120 110 171 161 155 131 118 116 113 120 123 130 131 128 119 102 86 70 63 63 56 56 56 53 47 51 40 24 17 2 5 6 2 358 357 352
81 90 132 117 167 174 173 160 140 135 141 122 155 198 177 185 160 156 132 119 107 94 87 115 146 146 144 134 107 91 76 71 67 52 44 46 49 49 41 32 31 24 20 16 7 1 357 356 353
133 86 140 148 174 178 169 183 151 80 181 187 58 250 158 140 158 158 143 131 107 85 57 40 174 158 156 133 106 97 83 68 58 48 40 42 35 42 32 38 32 35 20 11 6 359 351 344 335
22 74 176 186 184 183 172 192 176 196 185 208 240 103 140 156 178 185 189 176 142 139 118 24 190 168 164 140 126 106 92 73 58 42 31 33 43 42 35 47 45 30 15 1 1 357 342 322 328
83 18 154 194 194 184 169 181 179 189 211 214 210 172 171 181 200 211 198 192 191 164 160 124 157 175 185 161 146 120 98 80 76 56 37 46 44 30 26 22 19 7 8 356 350 348 348 341 328
312 42 173 124 188 159 169 156 198 202 192 225 208 179 176 195 206 217 214 191 191 183 162 147 107 148 173 170 174 135 122 98 66 58 35 29 30 28 18 17 15 6 360 351 349 342 339 329 323
321 34 125 146 172 164 168 193 229 230 223 162 159 172 195 207 215 218 227 211 198 187 155 141 137 124 149 168 161 165 141 117 60 54 45 27 25 21 2 13 7 5 358 352 346 344 334 327 323
10 13 77 141 171 184 209 204 206 251 160 161 176 188 203 216 215 218 226 222 207 186 172 160 164 149 161 137 177 185 168 144 102 61 42 43 27 21 15 14 8 7 1 359 345 349 337 326 318
55 278 175 168 180 186 228 237 233 188 174 182 199 203 210 220 214 218 219 215 207 194 179 182 175 149 149 147 168 179 179 148 83 65 47 45 26 33 9 23 16 5 356 356 355 352 342 336 321
347 276 313 111 185 161 194 284 292 175 177 201 209 213 218 221 224 222 212 206 194 190 189 180 173 163 153 158 165 184 183 162 142 112 27 35 40 34 13 8 16 4 355 2 2 0 351 357 352
29 315 307 308 209 152 218 274 13 177 200 210 220 220 225 234 232 227 217 206 189 187 182 181 181 169 157 158 193 187 187 209 189 208 248 26 39 18 358 12 15 354 351 6 2 5 1 5 3
262 266 272 278 117 220 236 260 257 217 210 221 228 226 234 239 242 230 206 190 178 173 177 180 195 206 189 176 192 220 234 223 224 223 240 265 326 341 343 1 4 347 350 5 7 2 9 9 350
254 258 279 268 358 250 259 275 291 289 234 239 235 236 241 243 253 246 200 180 165 151 185 169 195 241 240 224 255 268 258 243 237 235 230 244 258 280 326 343 346 341 345 351 359 357 360 13 3
197 259 332 211 47 221 295 285 304 303 283 261 243 238 244 252 250 236 206 187 181 165 177 153 222 227 250 249 323 301 319 292 294 254 234 241 246 253 267 315 333 338 333 341 354 4 353 17 17
182 295 198 291 131 103 318 266 332 299 298 285 248 249 254 263 272 253 223 193 174 162 134 47 299 234 199 244 196 214 197 223 239 237 246 234 240 248 251 273 295 298 297 328 334 342 352 352 20
16 336 260 92 311 353 350 342 340 341 321 289 287 275 282 279 277 273 266 210 175 146 142 171 216 208 190 192 206 229 259 269 273 267 251 261 257 250 246 252 262 275 299 303 316 315 308 301 339
26 118 85 53 58 284 8 281 24 333 342 345 3 40 3 351 345 319 311 180 168 167 179 210 193 164 172 185 209 225 238 253 269 252 262 268 271 261 242 245 258 267 269 279 280 287 289 287 297
144 80 59 83 262 6 341 312 337 333 325 315 348 23 19 17 359 8 77 148 170 180 187 196 188 194 175 181 199 220 233 245 257 258 271 273 301 265 239 250 256 262 273 273 278 278 272 276 274
76 15 346 348 355 354 340 257 290 305 308 307 333 5 25 30 13 51 131 163 177 185 191 208 190 175 198 183 203 216 224 234 254 260 276 292 281 268 266 251 259 264 265 268 270 271 272 265 267
93 229 345 333 348 344 171 279 360 309 317 311 315 18 36 29 22 36 125 176 187 194 196 197 177 190 203 193 207 216 220 224 239 241 274 275 269 284 292 273 274 271 271 266 268 269 271 276 268
140 201 78 114 134 277 352 270 269 319 331 334 344 24 35 27 24 45 103 194 194 203 207 187 188 202 206 203 212 215 214 224 241 242 242 261 261 272 271 274 277 276 274 268 272 269 273 274 272
303 124 185 133 298 317 310 277 315 337 339 351 335 14 30 38 39 43 42 221 217 211 202 197 206 230 221 214 220 224 220 227 243 245 242 255 265 265 272 276 276 277 275 273 272 276 276 274 276
159 176 68 75 306 295 304 324 201 273 319 319 329 13 10 29 36 51 73 198 221 209 180 191 170 222 213 216 227 233 238 239 244 250 252 256 269 271 273 278 280 279 279 281 278 277 280 279 282
39 78 181 308 258 234 306 278 168 260 318 302 341 345 12 28 41 72 99 176 208 220 198 197 199 212 226 226 236 239 247 250 253 258 262 264 268 278 279 282 282 281 283 286 282 284 287 290 291